STARLINK-1745 (46377 NORAD) Tracking and Keplerian Element Data

This shows tracking and keplerian element data for the satellite.

Feedback or suggestion? Click here.




ElementValue
Catalog46377
NameSTARLINK-1745
Epoch Orbit178
Epoch Day268.91668981
Epoch Year2020
RAAN323.7457
Inclination53.0007
Eccentricity0.0001049
Argument of Perigee57.7892
Mean Anonmoly156.0365
Mean Motion15.62825747
Decay Rate-0.00065099
L11 46377U 20062BE 20268.91668981 -.00065099 00000-0 -70879-3 0 9998
L22 46377 53.0007 323.7457 0001049 57.7892 156.0365 15.62825747 1786

Live tracking and technical data element details for STARLINK-1745 (NORAD 46377). STARLINK-1745 can be tracked NOW for your location showing map with azimuth and elevation plus other details from your city location.

Track the satellite on the map from your city or location and see movement details for azimuth, elevation, latitude, longitude, range, height, and movement on the map or in text.







IsCatalogInMostPopularTable: catalog: 46377, numindb: 4
Update: records affected: 1



GetName: 46377 STARLINK-1745

Hit Count: updated at: Sat, 26 Sep 2020 14:12:23 GMT